Weather History for Portland Troutdale, OR

Change the Weather History Date:

Saturday, January 5, 2013

  Actual Average Record
Temperature  
Mean Temperature 35 °F 39 °F  
Max Temperature 36 °F 44 °F 60 °F (1967)
Min Temperature 34 °F 33 °F 16 °F (2004)
Degree Days  
Heating Degree Days 30 26  
Month to date heating degree days 146 134  
Cooling Degree Days 0 0  
Month to date cooling degree days 0 0  
Moisture  
Dew Point 27 °F    
Average Humidity 73    
Maximum Humidity 82    
Minimum Humidity 64    
Precipitation  
Precipitation T in 0.22 in 0.97 in (1998)
Month to date precipitation T 1.14  
Year to date precipitation T 1.14  
Snow  
Snow 0.00 in - - ()
Month to date snowfall 0.0  
Snow Depth 0.00 in    
Sea Level Pressure  
Sea Level Pressure 30.21 in    
Wind  
Wind Speed 21 mph (East)    
Max Wind Speed 31 mph    
Max Gust Speed 40 mph    
Visibility 9 miles    
Events Rain    
T = Trace of Precipitation, MM = Missing Value Source: NWS Daily Summary

Daily Weather History Graph

Daily Weather History Graph

Search for Another Location

Airport:

Trip Planner

Search our weather history database for the weather conditions in past years. The results will help you decide how hot, cold, wet, or windy it might be!

Date:

Astronomy

Jan. 05, 2013 Rise Set
Actual Time 7:49 AM PST 4:41 PM PST
Civil Twilight 7:15 AM PST 5:14 PM PST
Nautical Twilight 6:38 AM PST 5:52 PM PST
Astronomical Twilight 6:02 AM PST 6:28 PM PST
Moon 12:52 AM PST (1/5) 11:42 AM PST (1/5)
Length of Visible Light 9h 59m
Length of Day
8h 51m
Last Quarter, 43% of the Moon is Illuminated
Jan 5
Last Quarter
Jan 11
New
Jan 18
First Quarter
Jan 26
Full
Feb 3
Last Quarter

Hourly Weather History & Observations

Time (PST) Temp. Windchill Dew Point Humidity Pressure Visibility Wind Dir Wind Speed Gust Speed Precip Events Conditions
12:53 AM 35.1 °F 22.2 °F 24.1 °F 64% 30.20 in 9.0 mi East 27.6 mph 39.1 mph N/A   Overcast
1:53 AM 35.1 °F 23.5 °F 24.1 °F 64% 30.21 in 8.0 mi East 21.9 mph 34.5 mph N/A   Overcast
2:53 AM 35.1 °F 23.8 °F 25.0 °F 67% 30.22 in 7.0 mi East 20.7 mph 33.4 mph N/A   Clear
3:53 AM 35.1 °F 22.2 °F 25.0 °F 67% 30.20 in 7.0 mi East 27.6 mph 38.0 mph N/A   Scattered Clouds
4:53 AM 35.1 °F 22.7 °F 25.0 °F 67% 30.20 in 9.0 mi East 25.3 mph 35.7 mph N/A   Mostly Cloudy
5:53 AM 35.1 °F 23.5 °F 25.0 °F 67% 30.21 in 9.0 mi East 21.9 mph 32.2 mph N/A   Mostly Cloudy
6:53 AM 35.1 °F 23.5 °F 25.0 °F 67% 30.22 in 9.0 mi East 21.9 mph 32.2 mph N/A   Scattered Clouds
7:53 AM 35.1 °F 23.0 °F 25.0 °F 67% 30.23 in 9.0 mi East 24.2 mph 31.1 mph N/A   Overcast
8:53 AM 35.1 °F 23.0 °F 26.1 °F 70% 30.22 in 9.0 mi East 24.2 mph 34.5 mph N/A   Overcast
9:53 AM 36.0 °F 25.0 °F 25.0 °F 64% 30.23 in 10.0 mi ENE 20.7 mph 31.1 mph N/A   Overcast
10:53 AM 35.1 °F 24.8 °F 28.0 °F 76% 30.25 in 9.0 mi East 17.3 mph 26.5 mph 0.00 in   Overcast
11:53 AM 35.1 °F 23.8 °F 28.0 °F 76% 30.22 in 9.0 mi East 20.7 mph 32.2 mph 0.00 in   Overcast
12:53 PM 35.1 °F 23.3 °F 28.0 °F 76% 30.19 in 10.0 mi East 23.0 mph 31.1 mph 0.00 in   Overcast
1:53 PM 35.1 °F 23.8 °F 28.0 °F 76% 30.18 in 10.0 mi East 20.7 mph 31.1 mph N/A   Overcast
2:53 PM 36.0 °F 27.5 °F 27.0 °F 70% 30.19 in 10.0 mi East 12.7 mph 21.9 mph N/A   Overcast
3:53 PM 36.0 °F 27.1 °F 27.0 °F 70% 30.20 in 10.0 mi ENE 13.8 mph 25.3 mph N/A   Overcast
4:53 PM 35.1 °F 24.1 °F 28.0 °F 76% 30.21 in 9.0 mi East 19.6 mph 25.3 mph 0.00 in Rain Light Rain
5:53 PM 34.0 °F 21.3 °F 28.0 °F 79% 30.20 in 10.0 mi East 25.3 mph 32.2 mph 0.00 in Rain Light Rain
6:53 PM 35.1 °F 24.5 °F 28.0 °F 76% 30.19 in 10.0 mi East 18.4 mph 32.2 mph 0.00 in   Overcast
7:53 PM 35.1 °F 23.5 °F 28.0 °F 76% 30.19 in 10.0 mi East 21.9 mph 29.9 mph N/A   Overcast
8:53 PM 35.1 °F 24.8 °F 28.0 °F 76% 30.20 in 10.0 mi East 17.3 mph 24.2 mph N/A   Overcast
9:53 PM 35.1 °F 24.1 °F 27.0 °F 72% 30.21 in 10.0 mi East 19.6 mph 25.3 mph N/A   Overcast
10:53 PM 36.0 °F 26.0 °F 27.0 °F 70% 30.21 in 10.0 mi East 17.3 mph 29.9 mph N/A   Overcast
11:53 PM 35.1 °F 24.8 °F 28.0 °F 76% 30.21 in 10.0 mi East 17.3 mph 25.3 mph 0.00 in Rain Light Rain